DW8945 Weather Reports


time (UTC)temp
F
wind
direction
speed
knots
gust
knots
rain 1hr
in
rain 24hr
in
rain mn
in
humidity
%
barometer
mb
20260507203343 66 288 0.9 11.3 0.00 0.00 0.00 32 1003.8
20260507202850 66 9 3.5 11.3 0.00 0.00 0.00 31 1003.8
20260507202357 66 306 2.6 8.7 0.00 0.00 0.00 32 1003.9
20260507201844 66 271 1.7 8.7 0.00 0.00 0.00 31 1003.8
20260507201350 66 355 1.7 11.3 0.00 0.00 0.00 33 1003.9
20260507200857 66 298 4.3 11.3 0.00 0.00 0.00 32 1003.9
20260507200357 66 80 4.3 11.3 0.00 0.00 0.00 31 1003.9
20260507195908 66 269 2.6 9.6 0.00 0.00 0.00 31 1004.0
20260507195354 66 307 3.5 9.6 0.00 0.00 0.00 31 1004.1
20260507194858 66 327 3.5 12.2 0.00 0.00 0.00 31 1004.0
20260507194345 66 315 3.5 12.2 0.00 0.00 0.00 31 1004.2
20260507193853 66 324 1.7 8.7 0.00 0.00 0.00 33 1004.2
20260507193359 66 320 2.6 8.7 0.00 0.00 0.00 31 1004.3
20260507192845 66 296 4.3 10.4 0.00 0.00 0.00 31 1004.3
20260507192351 66 286 4.3 10.4 0.00 0.00 0.00 31 1004.4
20260507191854 67 334 0.9 6.1 0.00 0.00 0.00 31 1004.4
20260507191342 66 76 0.9 6.1 0.00 0.00 0.00 31 1004.4
20260507190847 66 309 2.6 8.7 0.00 0.00 0.00 30 1004.4
20260507190405 66 5 4.3 9.6 0.00 0.00 0.00 30 1004.4
20260507185859 66 329 3.5 11.3 0.00 0.00 0.00 29 1004.5
20260507185407 67 325 4.3 11.3 0.00 0.00 0.00 30 1004.7
20260507184851 67 13 2.6 7.0 0.00 0.00 0.00 31 1004.6
20260507184356 66 299 1.7 9.6 0.00 0.00 0.00 33 1004.6
20260507183842 66 10 3.5 10.4 0.00 0.00 0.00 33 1004.7
20260507183347 67 296 2.6 10.4 0.00 0.00 0.00 33 1004.7
20260507182853 67 300 1.7 8.7 0.00 0.00 0.00 33 1004.7
20260507182341 66 251 3.5 8.7 0.00 0.00 0.00 33 1004.7
20260507181844 66 302 1.7 10.4 0.00 0.00 0.00 32 1004.7
20260507181352 66 293 3.5 12.2 0.00 0.00 0.00 32 1004.8
20260507180842 66 310 5.2 12.2 0.00 0.00 0.00 32 1004.9
20260507180344 66 290 4.3 9.6 0.00 0.00 0.00 35 1004.9
20260507175849 66 355 1.7 7.0 0.00 0.00 0.00 36 1004.9
20260507175355 65 327 2.6 9.6 0.00 0.00 0.00 36 1004.9
20260507174842 65 333 4.3 9.6 0.00 0.00 0.00 36 1005.1
20260507174349 65 21 2.6 8.7 0.00 0.00 0.00 36 1005.0
20260507173855 65 309 2.6 8.7 0.00 0.00 0.00 38 1005.0
20260507173358 65 283 3.5 8.7 0.00 0.00 0.00 36 1005.0
20260507172900 65 323 2.6 8.7 0.00 0.00 0.00 37 1005.1
20260507172403 65 312 4.3 7.8 0.00 0.00 0.00 35 1005.2
20260507171846 65 327 3.5 7.0 0.00 0.00 0.00 36 1005.2
20260507171406 65 325 0.9 12.2 0.00 0.00 0.00 39 1005.1
20260507170913 64 336 2.6 12.2 0.00 0.00 0.00 37 1005.3
20260507170351 65 311 3.5 11.3 0.00 0.00 0.00 38 1005.3
20260507165843 65 340 1.7 11.3 0.00 0.00 0.00 40 1005.3
20260507165346 64 287 3.5 10.4 0.00 0.00 0.00 42 1005.4
20260507164850 64 289 3.5 10.4 0.00 0.00 0.00 44 1005.5
20260507164354 64 284 3.5 10.4 0.00 0.00 0.00 44 1005.4
20260507163842 64 291 2.6 8.7 0.00 0.00 0.00 45 1005.4
20260507163349 64 332 3.5 8.7 0.00 0.00 0.00 45 1005.6
20260507162915 64 283 2.6 7.8 0.00 0.00 0.00 47 1005.7
20260507162401 64 327 3.5 7.8 0.00 0.00 0.00 46 1005.6
20260507161905 64 46 0.9 9.6 0.00 0.00 0.00 47 1005.6
20260507161351 64 298 5.2 9.6 0.00 0.00 0.00 47 1005.7
20260507160858 64 284 3.5 7.0 0.00 0.00 0.00 48 1005.7
20260507160353 64 308 1.7 6.1 0.00 0.00 0.00 49 1005.9
20260507155919 64 295 0.9 7.0 0.00 0.00 0.00 51 1005.8
20260507155344 63 271 0.9 8.7 0.00 0.00 0.00 52 1005.8
20260507154849 63 281 3.5 8.7 0.00 0.00 0.00 51 1005.9
20260507154353 63 313 2.6 6.1 0.00 0.00 0.00 53 1005.9
20260507153813 61 306 2.6 7.8 0.00 0.00 0.00 58 1005.9
20260507152903 61 339 3.5 7.8 0.00 0.00 0.00 56 1006.1
20260507152350 62 319 3.5 8.7 0.00 0.00 0.00 56 1006.2
20260507151852 62 333 1.7 8.7 0.00 0.00 0.00 55 1006.2
20260507151359 62 340 1.7 7.8 0.00 0.00 0.00 58 1006.2
20260507150846 61 281 3.5 7.8 0.00 0.00 0.00 56 1006.2
20260507150347 61 312 1.7 6.1 0.00 0.00 0.00 58 1006.2
20260507145858 61 317 0.9 7.8 0.00 0.00 0.00 58 1006.2
20260507145344 61 290 2.6 7.8 0.00 0.00 0.00 58 1006.4
20260507144847 61 313 1.7 5.2 0.00 0.00 0.00 60 1006.4
20260507144414 61 313 0.0 3.5 0.00 0.00 0.00 60 1006.4
20260507143859 61 310 0.9 7.0 0.00 0.00 0.00 61 1006.5
20260507143359 60 312 1.7 10.4 0.00 0.00 0.00 61 1006.7
20260507142906 60 266 4.3 10.4 0.00 0.00 0.00 60 1006.7
20260507142350 60 302 0.0 6.1 0.00 0.00 0.00 63 1006.6
20260507141913 59 304 1.7 6.1 0.00 0.00 0.00 63 1006.7
20260507141358 59 292 1.7 6.1 0.00 0.00 0.00 62 1006.6
20260507140904 59 292 1.7 7.0 0.00 0.00 0.00 61 1006.6
20260507140414 60 340 2.6 7.8 0.00 0.00 0.00 62 1006.7
20260507135904 60 342 2.6 5.2 0.00 0.00 0.00 61 1006.7
20260507135348 60 63 0.9 3.5 0.00 0.00 0.00 64 1006.7
20260507134854 59 40 0.9 5.2 0.00 0.00 0.00 63 1006.7
20260507134400 59 46 1.7 9.6 0.00 0.00 0.00 64 1006.7
20260507133848 58 335 3.5 9.6 0.00 0.00 0.00 65 1006.6
20260507133352 58 311 1.7 7.8 0.00 0.00 0.00 68 1006.6
20260507132900 58 308 1.7 7.8 0.00 0.00 0.00 68 1006.7
20260507132346 57 338 1.7 6.1 0.00 0.00 0.00 72 1006.8
20260507131851 57 360 0.9 7.0 0.00 0.00 0.00 74 1006.8
20260507131354 56 303 3.5 7.0 0.00 0.00 0.00 76 1006.9
20260507130901 56 292 0.9 7.0 0.00 0.00 0.00 79 1007.0
20260507130422 55 312 2.6 6.1 0.00 0.00 0.00 81 1006.9
20260507125852 55 315 1.7 6.1 0.00 0.00 0.00 85 1006.8
20260507125410 54 319 1.7 5.2 0.00 0.00 0.00 87 1006.8
20260507124912 53 319 1.7 7.0 0.00 0.00 0.00 88 1007.1
20260507124357 53 300 3.5 7.0 0.00 0.00 0.00 89 1007.1
20260507123902 52 330 2.6 7.0 0.00 0.00 0.00 90 1007.1
20260507123422 52 311 2.6 7.0 0.00 0.00 0.00 91 1007.2
20260507122844 52 5 1.7 5.2 0.00 0.00 0.00 92 1007.1
20260507122350 51 317 2.6 5.2 0.00 0.00 0.00 92 1007.1
20260507121854 51 319 0.9 5.2 0.00 0.00 0.00 93 1007.0
20260507121354 50 319 2.6 5.2 0.00 0.00 0.00 92 1007.1
20260507120856 50 319 1.7 5.2 0.00 0.00 0.00 92 1007.1
20260507120354 50 319 1.7 5.2 0.00 0.00 0.00 93 1007.0
20260507115904 50 311 1.7 4.3 0.00 0.00 0.00 93 1006.9
20260507115349 50 311 0.9 4.3 0.00 0.00 0.00 93 1006.9
20260507114852 50 311 0.9 3.5 0.00 0.00 0.00 93 1007.0
20260507114355 50 311 0.0 3.5 0.00 0.00 0.00 93 1007.0
20260507113900 50 311 0.9 5.2 0.00 0.00 0.00 93 1007.1
20260507113359 50 311 1.7 5.2 0.00 0.00 0.00 93 1006.9
20260507112903 50 313 0.0 1.7 0.00 0.00 0.00 93 1006.9
20260507112424 50 313 0.0 2.6 0.00 0.00 0.00 93 1006.8
20260507111905 50 313 0.9 2.6 0.00 0.00 0.00 93 1006.9
20260507111349 49 313 0.0 1.7 0.00 0.00 0.00 93 1006.9
20260507110852 50 313 0.0 1.7 0.00 0.00 0.00 92 1006.9
20260507110351 50 313 0.0 1.7 0.00 0.00 0.00 92 1006.6
20260507105904 50 313 0.0 0.9 0.00 0.00 0.00 92 1006.5
20260507105350 50 313 0.0 0.9 0.00 0.00 0.00 92 1006.5
20260507104851 49 313 0.0 0.0 0.00 0.00 0.00 92 1006.6
20260507104357 49 313 0.0 2.6 0.00 0.00 0.00 92 1006.7
20260507103901 49 313 0.9 2.6 0.00 0.00 0.00 92 1006.9
20260507103404 49 314 0.0 1.7 0.00 0.00 0.00 92 1006.9
20260507102848 49 314 0.9 1.7 0.00 0.00 0.00 92 1007.0
20260507102354 49 314 0.0 1.7 0.00 0.00 0.00 92 1006.8
20260507101918 49 314 0.0 0.9 0.00 0.00 0.00 92 1006.5
20260507101359 49 314 0.0 0.9 0.00 0.00 0.00 91 1006.4
20260507100844 49 314 0.0 1.7 0.00 0.00 0.00 91 1006.4
20260507100406 49 314 0.0 4.3 0.00 0.00 0.00 91 1006.3
20260507095915 49 314 1.7 4.3 0.00 0.00 0.00 91 1006.4
20260507095357 49 314 1.7 3.5 0.00 0.00 0.00 91 1006.1
20260507094900 49 315 0.0 5.2 0.00 0.00 0.00 91 1006.1
20260507094405 49 313 1.7 4.3 0.00 0.00 0.00 91 1006.1
20260507093901 49 311 0.9 5.2 0.00 0.00 0.00 91 1006.1
20260507093345 50 312 1.7 7.0 0.00 0.00 0.00 91 1006.1
20260507092852 50 300 3.5 7.0 0.00 0.00 0.00 90 1006.1
20260507092355 50 324 1.7 5.2 0.00 0.00 0.00 91 1006.0
20260507091857 50 323 2.6 5.2 0.00 0.00 0.00 90 1006.0
20260507091403 50 317 1.7 4.3 0.00 0.00 0.00 90 1006.2
20260507090848 50 318 1.7 4.3 0.00 0.00 0.00 90 1006.2
20260507090345 51 316 0.9 4.3 0.00 0.00 0.00 90 1006.4
20260507085858 51 319 0.9 4.3 0.00 0.00 0.00 90 1006.4
20260507085402 51 317 1.7 5.2 0.00 0.00 0.00 90 1006.4
20260507084905 51 315 2.6 5.2 0.00 0.00 0.00 89 1006.3
20260507084349 51 316 1.7 5.2 0.00 0.00 0.00 89 1006.4
20260507083855 51 316 2.6 6.1 0.00 0.00 0.00 89 1006.4
20260507083355 52 318 1.7 6.1 0.00 0.00 0.00 89 1006.1
20260507082857 52 294 1.7 5.2 0.00 0.00 0.00 89 1006.0
20260507082401 52 291 1.7 5.2 0.00 0.00 0.00 88 1006.1
20260507081843 52 287 0.0 5.2 0.00 0.00 0.00 88 1006.0
20260507081350 52 276 0.0 6.1 0.00 0.00 0.00 87 1005.8
20260507080855 53 299 1.7 6.1 0.00 0.00 0.00 87 1005.9
20260507080353 53 325 1.7 7.0 0.00 0.00 0.00 86 1006.0
20260507075846 53 331 2.6 7.0 0.00 0.00 0.00 86 1006.2
20260507075352 53 315 2.6 7.8 0.00 0.00 0.00 86 1005.9
20260507074856 54 317 2.6 7.8 0.00 0.00 0.00 85 1006.0
20260507074402 54 340 1.7 7.0 0.00 0.00 0.00 85 1005.7
20260507073846 55 346 2.6 7.8 0.00 0.00 0.00 85 1005.8
20260507073349 55 301 3.5 7.8 0.00 0.00 0.00 84 1005.8
20260507072857 55 287 2.6 6.1 0.00 0.00 0.00 84 1005.7
20260507072345 55 298 2.6 6.1 0.00 0.00 0.00 84 1005.6
20260507071850 55 332 1.7 7.8 0.00 0.00 0.00 84 1005.2
20260507071418 55 331 1.7 7.8 0.00 0.00 0.00 84 1004.9
20260507070842 56 328 0.9 6.1 0.00 0.00 0.00 85 1004.9
20260507070356 56 329 1.7 6.1 0.00 0.00 0.00 85 1005.0
20260507065906 56 323 1.7 4.3 0.00 0.00 0.00 85 1005.2
20260507065353 56 321 0.9 3.5 0.00 0.00 0.00 85 1005.0
20260507064900 56 321 0.9 4.3 0.00 0.00 0.00 85 1005.0
20260507064345 56 320 0.9 4.3 0.00 0.00 0.00 85 1005.2
20260507063854 56 320 0.9 6.1 0.00 0.00 0.00 85 1005.2
20260507063359 56 325 2.6 7.0 0.00 0.00 0.00 85 1005.3
20260507062846 56 326 2.6 7.8 0.00 0.00 0.00 86 1005.3
20260507062413 57 331 2.6 7.8 0.00 0.00 0.00 86 1005.3
20260507061856 57 325 2.6 7.8 0.00 0.00 0.00 86 1005.1
20260507061342 57 329 1.7 5.2 0.00 0.00 0.00 86 1004.9
20260507060850 57 333 0.9 4.3 0.00 0.00 0.00 87 1004.8
20260507060351 57 329 0.9 4.3 0.00 0.00 0.00 87 1004.9
20260507055922 57 331 0.9 5.2 0.00 0.00 0.00 87 1005.2
20260507055350 57 332 1.7 5.2 0.00 0.00 0.00 87 1005.3
20260507054855 58 293 0.9 6.1 0.00 0.00 0.00 87 1005.2
20260507054341 58 288 2.6 8.7 0.00 0.00 0.00 87 1005.2
20260507053848 58 311 2.6 8.7 0.00 0.00 0.00 88 1005.5
20260507053349 58 302 0.0 4.3 0.00 0.00 0.00 89 1005.6
20260507052856 58 300 0.9 5.2 0.00 0.00 0.00 89 1005.4
20260507052344 58 300 1.7 5.2 0.00 0.00 0.00 89 1005.4
20260507051847 58 301 0.9 5.2 0.00 0.00 0.00 89 1005.3
20260507051351 58 295 2.6 5.2 0.00 0.00 0.00 89 1005.1
20260507050859 59 290 1.7 6.1 0.00 0.00 0.00 90 1004.9
20260507050342 59 283 0.9 7.8 0.00 0.00 0.00 90 1005.0
20260507045855 59 282 2.6 8.7 0.00 0.00 0.00 90 1005.1
20260507045342 59 312 1.7 8.7 0.00 0.00 0.00 91 1005.1
20260507044847 59 312 1.7 5.2 0.00 0.00 0.00 91 1005.2
20260507044353 59 317 0.9 8.7 0.00 0.00 0.00 92 1005.2
20260507043859 59 338 1.7 10.4 0.00 0.00 0.00 92 1005.3
20260507043404 59 303 4.3 10.4 0.00 0.00 0.00 92 1005.0
20260507042910 60 329 1.7 9.6 0.00 0.00 0.00 93 1004.9
20260507042414 60 305 2.6 5.2 0.00 0.00 0.00 93 1005.0
20260507041856 60 307 0.9 4.3 0.00 0.00 0.00 93 1005.0
20260507041421 60 312 0.0 4.3 0.00 0.00 0.00 93 1005.0
20260507040847 60 313 2.6 6.1 0.00 0.00 0.00 93 1005.0
20260507040422 60 305 0.9 4.3 0.00 0.00 0.00 94 1005.2
20260507035846 60 305 0.0 4.3 0.00 0.00 0.00 94 1005.3
20260507035354 60 304 0.9 4.3 0.00 0.00 0.00 94 1005.4
20260507034858 60 311 1.7 5.2 0.00 0.00 0.00 93 1005.4
20260507034401 60 310 1.7 5.2 0.00 0.00 0.00 93 1005.2
20260507033849 60 321 2.6 5.2 0.00 0.00 0.00 93 1005.1
20260507033353 60 285 0.9 5.2 0.00 0.00 0.00 93 1004.9
20260507032920 60 277 0.9 7.0 0.00 0.00 0.00 93 1004.8
20260507032347 60 272 1.7 7.8 0.00 0.00 0.00 93 1005.0
20260507031912 60 277 2.6 7.8 0.00 0.00 0.00 93 1004.8
20260507031358 60 279 2.6 7.0 0.00 0.00 0.00 94 1004.7
20260507030904 60 262 2.6 7.0 0.00 0.00 0.00 93 1004.6
20260507030345 60 238 0.9 6.1 0.00 0.00 0.00 93 1004.6
20260507025856 60 275 1.7 6.1 0.00 0.00 0.00 93 1004.6
20260507025400 60 228 2.6 6.1 0.00 0.00 0.00 93 1004.6
20260507024901 60 305 1.7 6.1 0.00 0.00 0.00 93 1004.5
20260507024348 60 261 1.7 6.1 0.00 0.00 0.00 93 1004.5
20260507023855 60 245 2.6 6.1 0.00 0.00 0.00 93 1004.6
20260507023400 60 309 1.7 5.2 0.00 0.00 0.00 94 1004.8
20260507022848 60 331 0.9 5.2 0.00 0.00 0.00 94 1004.8
20260507022349 60 244 1.7 6.1 0.00 0.00 0.00 94 1004.6
20260507021849 59 250 2.6 6.1 0.00 0.00 0.00 94 1004.5
20260507021354 59 257 1.7 5.2 0.00 0.00 0.00 94 1004.6
20260507020921 59 272 0.9 6.1 0.00 0.00 0.00 94 1004.7
20260507020355 59 236 2.6 6.1 0.00 0.00 0.00 94 1004.6
20260507015844 59 285 0.9 6.1 0.00 0.00 0.00 94 1004.7
20260507015410 59 254 1.7 3.5 0.00 0.00 0.00 94 1004.5
20260507014853 59 259 1.7 4.3 0.00 0.00 0.00 94 1004.6
20260507014357 59 275 1.7 4.3 0.00 0.00 0.00 94 1004.6
20260507013901 59 286 0.9 6.1 0.00 0.00 0.00 94 1004.6
20260507013403 59 214 2.6 6.1 0.00 0.00 0.00 93 1004.7
20260507012849 59 247 0.9 5.2 0.00 0.00 0.00 93 1004.7
20260507012354 59 202 3.5 6.1 0.00 0.00 0.00 93 1004.7
20260507011921 59 233 1.7 7.0 0.00 0.00 0.00 93 1004.9
20260507011345 59 227 0.9 7.0 0.00 0.00 0.00 93 1005.1
20260507010852 59 248 0.9 5.2 0.00 0.00 0.00 93 1005.0
20260507010351 59 297 1.7 6.1 0.00 0.00 0.00 93 1005.1
20260507005841 59 238 2.6 6.1 0.00 0.00 0.00 93 1005.1
20260507005347 59 224 1.7 6.1 0.00 0.00 0.00 93 1005.2
20260507004912 59 221 1.7 6.1 0.00 0.00 0.00 93 1005.2
20260507004354 59 232 2.6 6.1 0.00 0.00 0.00 93 1005.1
20260507003857 59 227 1.7 6.1 0.00 0.00 0.00 93 1005.1
20260507003358 59 227 1.7 7.0 0.00 0.00 0.00 93 1005.0
20260507002902 59 224 0.9 7.0 0.00 0.00 0.00 93 1005.0
20260507002347 59 227 2.6 7.0 0.00 0.00 0.00 93 1005.1
20260507001850 59 229 1.7 7.0 0.00 0.00 0.00 93 1005.0
20260507001355 59 209 0.9 6.1 0.00 0.00 0.00 93 1004.9
20260507000900 59 241 1.7 6.1 0.00 0.00 0.00 93 1004.8
20260507000343 59 231 2.6 6.1 0.00 0.00 0.00 93 1004.7
20260506235855 59 235 2.6 6.1 0.00 0.00 0.00 93 1004.6
20260506235401 59 250 2.6 6.1 0.00 0.00 0.00 92 1004.7
20260506234842 59 229 3.5 6.1 0.00 0.00 0.00 92 1004.7
20260506234410 60 220 3.5 6.1 0.00 0.00 0.00 92 1004.7
20260506233852 60 233 2.6 7.0 0.00 0.00 0.00 92 1004.8
20260506233353 60 304 1.7 7.0 0.00 0.00 0.00 92 1004.6
20260506232856 60 217 1.7 7.0 0.00 0.00 0.00 92 1004.6
20260506232343 60 245 1.7 7.0 0.00 0.00 0.00 92 1004.5
20260506231849 60 264 1.7 7.8 0.00 0.00 0.00 92 1004.5
20260506231356 60 234 3.5 7.8 0.00 0.00 0.00 92 1004.6
20260506230843 60 234 3.5 7.8 0.00 0.00 0.00 92 1004.6
20260506230344 60 237 1.7 6.1 0.00 0.00 0.00 92 1004.6
20260506225854 60 326 1.7 6.1 0.00 0.00 0.00 92 1004.6
20260506225342 60 257 1.7 6.1 0.00 0.00 0.00 92 1004.7
20260506224846 61 235 2.6 7.0 0.00 0.00 0.00 92 1004.6
20260506224351 61 186 1.7 7.0 0.00 0.00 0.00 92 1004.7
20260506223856 61 240 1.7 6.1 0.00 0.00 0.00 92 1004.6
20260506223421 61 246 2.6 10.4 0.00 0.00 0.00 92 1004.8
20260506222905 61 235 2.6 10.4 0.00 0.00 0.00 91 1004.8
20260506222351 61 221 3.5 7.0 0.00 0.00 0.00 92 1004.9
20260506221854 61 232 2.6 7.8 0.00 0.00 0.00 91 1005.0
20260506221400 61 238 3.5 9.6 0.00 0.00 0.00 91 1005.0
20260506220846 61 218 5.2 8.7 0.00 0.00 0.00 91 1005.1
20260506220404 61 236 1.7 8.7 0.00 0.00 0.00 91 1005.1
20260506215853 61 229 5.2 8.7 0.00 0.00 0.00 90 1005.1
20260506215400 61 234 1.7 9.6 0.00 0.00 0.00 90 1005.1
20260506214904 61 214 2.6 8.7 0.00 0.00 0.00 90 1005.3
20260506214349 62 230 4.3 8.7 0.00 0.00 0.00 89 1005.3
20260506213854 62 321 5.2 8.7 0.00 0.00 0.00 89 1005.4
20260506213355 62 223 2.6 7.8 0.00 0.00 0.00 89 1005.4
20260506212858 62 260 3.5 8.7 0.00 0.00 0.00 89 1005.6
20260506212345 62 230 5.2 12.2 0.00 0.00 0.00 89 1005.4
20260506211909 62 229 6.1 12.2 0.00 0.00 0.00 89 1005.4
20260506211352 62 251 4.3 8.7 0.00 0.00 0.00 89 1005.4
20260506210856 62 232 4.3 8.7 0.00 0.00 0.00 89 1005.4
20260506210349 62 273 2.6 8.7 0.00 0.00 0.00 89 1005.4
20260506205841 62 232 4.3 10.4 0.00 0.00 0.00 88 1005.5
20260506205342 62 220 3.5 10.4 0.00 0.00 0.00 88 1005.5
20260506204845 62 240 4.3 8.7 0.00 0.00 0.00 88 1005.6
20260506204352 62 252 1.7 10.4 0.00 0.00 0.00 88 1005.6
20260506203858 62 227 2.6 10.4 0.00 0.00 0.00 87 1005.7